BVX7126 PHNL-PHOG

Flight info

Callsign BVX7126
Flight time 0h 22m
Altitude 13000
Route PALAY3 LNY CAMPS4
Aircraft B738/M-SDE2E3FGHIRWXY/LB1

Departure

Time 2026-05-05 18:34
Airport Daniel K. Inouye International Airport (PHNL)

Arrival

Time 2026-05-05 18:56
Airport Kahului International Airport (PHOG)
Time Latitude Longitude Altitude Speed Heading
2026-05-05 18:13 21.33046 -157.91941 23 ft 0 kts 279°
2026-05-05 18:22 21.33045 -157.91935 23 ft 4 kts 279°
2026-05-05 18:23 21.33042 -157.91911 27 ft 4 kts 281°
2026-05-05 18:23 21.33032 -157.91890 26 ft 4 kts 341°
2026-05-05 18:23 21.33006 -157.91888 24 ft 4 kts
2026-05-05 18:23 21.32981 -157.91893 25 ft 4 kts
2026-05-05 18:24 21.32954 -157.91897 25 ft 4 kts
2026-05-05 18:24 21.32927 -157.91902 24 ft 4 kts
2026-05-05 18:24 21.32901 -157.91907 24 ft 4 kts
2026-05-05 18:24 21.32874 -157.91912 23 ft 4 kts
2026-05-05 18:25 21.32847 -157.91916 23 ft 4 kts
2026-05-05 18:25 21.32831 -157.91919 23 ft 4 kts
2026-05-05 18:25 21.32796 -157.91917 24 ft 4 kts 331°
2026-05-05 18:25 21.32778 -157.91899 24 ft 4 kts 294°
2026-05-05 18:26 21.32772 -157.91872 24 ft 3 kts 269°
2026-05-05 18:26 21.32772 -157.91849 23 ft 1 kts 269°
2026-05-05 18:26 21.32772 -157.91848 23 ft 1 kts 269°
2026-05-05 18:28 21.32772 -157.91849 23 ft 1 kts 269°
2026-05-05 18:28 21.32772 -157.91883 25 ft 10 kts 272°
2026-05-05 18:28 21.32773 -157.91993 23 ft 19 kts 270°
2026-05-05 18:29 21.32772 -157.92147 23 ft 21 kts 270°
2026-05-05 18:29 21.32772 -157.92299 23 ft 20 kts 270°
2026-05-05 18:29 21.32773 -157.92478 23 ft 27 kts 271°
2026-05-05 18:29 21.32773 -157.92671 23 ft 25 kts 270°
2026-05-05 18:30 21.32743 -157.92850 23 ft 24 kts 269°
2026-05-05 18:30 21.32742 -157.93025 23 ft 25 kts 270°
2026-05-05 18:30 21.32742 -157.93233 23 ft 30 kts 270°
2026-05-05 18:30 21.32742 -157.93457 23 ft 29 kts 270°
2026-05-05 18:31 21.32742 -157.93669 23 ft 28 kts 270°
2026-05-05 18:31 21.32742 -157.93867 23 ft 26 kts 270°
2026-05-05 18:31 21.32742 -157.94056 23 ft 26 kts 270°
2026-05-05 18:31 21.32742 -157.94243 23 ft 20 kts 270°
2026-05-05 18:32 21.32706 -157.94320 26 ft 12 kts 197°
2026-05-05 18:32 21.32625 -157.94322 25 ft 11 kts 179°
2026-05-05 18:32 21.32547 -157.94316 26 ft 10 kts 156°
2026-05-05 18:32 21.32525 -157.94244 24 ft 14 kts 89°
2026-05-05 18:33 21.32525 -157.94018 24 ft 57 kts 90°
2026-05-05 18:33 21.32525 -157.93384 24 ft 111 kts 90°
2026-05-05 18:33 21.32525 -157.92393 24 ft 152 kts 90°
2026-05-05 18:33 21.32524 -157.91189 206 ft 170 kts 90°
2026-05-05 18:34 21.32498 -157.89912 692 ft 173 kts 99°
2026-05-05 18:34 21.31935 -157.88749 1007 ft 184 kts 141°
2026-05-05 18:34 21.30823 -157.88213 1672 ft 171 kts 161°
2026-05-05 18:34 21.29640 -157.87821 2133 ft 185 kts 162°
2026-05-05 18:35 21.28371 -157.87413 2572 ft 199 kts 163°
2026-05-05 18:35 21.26948 -157.87221 2822 ft 216 kts 185°
2026-05-05 18:35 21.25395 -157.87435 3002 ft 233 kts 187°
2026-05-05 18:35 21.23769 -157.87214 3235 ft 247 kts 154°
2026-05-05 18:36 21.22525 -157.85885 3462 ft 265 kts 117°
2026-05-05 18:36 21.21813 -157.84037 3549 ft 290 kts 112°
2026-05-05 18:36 21.21084 -157.81916 3672 ft 313 kts 110°
2026-05-05 18:36 21.20298 -157.79744 4441 ft 307 kts 113°
2026-05-05 18:37 21.19453 -157.77675 5456 ft 296 kts 115°
2026-05-05 18:37 21.18634 -157.75720 6653 ft 285 kts 115°
2026-05-05 18:37 21.17832 -157.73806 7630 ft 283 kts 116°
2026-05-05 18:37 21.16995 -157.71877 8271 ft 286 kts 116°
2026-05-05 18:38 21.16143 -157.69928 8922 ft 290 kts 116°
2026-05-05 18:38 21.15283 -157.67949 9576 ft 295 kts 115°
2026-05-05 18:38 21.14426 -157.65969 10196 ft 299 kts 115°
2026-05-05 18:38 21.13522 -157.63873 10395 ft 321 kts 115°
2026-05-05 18:39 21.12556 -157.61633 10555 ft 341 kts 115°
2026-05-05 18:39 21.11533 -157.59258 10695 ft 359 kts 115°
2026-05-05 18:39 21.10456 -157.56789 10997 ft 370 kts 117°
2026-05-05 18:39 21.09216 -157.54384 11481 ft 375 kts 121°
2026-05-05 18:40 21.07850 -157.51988 12057 ft 377 kts 122°
2026-05-05 18:40 21.06454 -157.49595 12619 ft 380 kts 122°
2026-05-05 18:40 21.05045 -157.47173 12969 ft 386 kts 122°
2026-05-05 18:40 21.03626 -157.44710 12982 ft 401 kts 122°
2026-05-05 18:41 21.02144 -157.42115 12997 ft 414 kts 122°
2026-05-05 18:41 21.00633 -157.39454 12994 ft 420 kts 122°
2026-05-05 18:41 20.99125 -157.36791 12980 ft 417 kts 122°
2026-05-05 18:41 20.97625 -157.34139 12976 ft 415 kts 122°
2026-05-05 18:42 20.96160 -157.31549 12966 ft 397 kts 122°
2026-05-05 18:42 20.94749 -157.29057 12720 ft 388 kts 122°
2026-05-05 18:42 20.93373 -157.26633 12424 ft 383 kts 122°
2026-05-05 18:42 20.91995 -157.24204 12010 ft 378 kts 122°
2026-05-05 18:43 20.90638 -157.21811 11588 ft 374 kts 122°
2026-05-05 18:43 20.89310 -157.19467 11158 ft 370 kts 122°
2026-05-05 18:43 20.87996 -157.17149 11019 ft 358 kts 122°
2026-05-05 18:43 20.86724 -157.14904 10863 ft 348 kts 122°
2026-05-05 18:44 20.85485 -157.12720 10707 ft 338 kts 122°
2026-05-05 18:44 20.84284 -157.10602 10562 ft 329 kts 121°
2026-05-05 18:44 20.83110 -157.08535 10425 ft 320 kts 122°
2026-05-05 18:44 20.81986 -157.06556 10297 ft 311 kts 121°
2026-05-05 18:45 20.80876 -157.04601 10160 ft 301 kts 121°
2026-05-05 18:45 20.79806 -157.02716 10034 ft 292 kts 121°
2026-05-05 18:45 20.78754 -157.00867 9761 ft 290 kts 121°
2026-05-05 18:45 20.77723 -156.99052 9491 ft 287 kts 122°
2026-05-05 18:46 20.76689 -156.97228 9216 ft 286 kts 120°
2026-05-05 18:46 20.75909 -156.95275 8919 ft 286 kts 108°
2026-05-05 18:46 20.75356 -156.93239 8625 ft 285 kts 106°
2026-05-05 18:46 20.74842 -156.91191 8333 ft 285 kts 106°
2026-05-05 18:47 20.74324 -156.89140 8049 ft 286 kts 106°
2026-05-05 18:47 20.73802 -156.87121 7754 ft 286 kts 106°
2026-05-05 18:47 20.73267 -156.85092 7458 ft 279 kts 107°
2026-05-05 18:47 20.72736 -156.83100 7190 ft 278 kts 107°
2026-05-05 18:48 20.72382 -156.81786 7013 ft 277 kts 108°
2026-05-05 18:48 20.71846 -156.79805 6722 ft 277 kts 107°
2026-05-05 18:48 20.71135 -156.77186 6334 ft 277 kts 108°
2026-05-05 18:48 20.70770 -156.75847 6142 ft 276 kts 107°
2026-05-05 18:49 20.70242 -156.73909 5867 ft 274 kts 107°
2026-05-05 18:49 20.69714 -156.71971 5622 ft 266 kts 107°
2026-05-05 18:49 20.69205 -156.70108 5372 ft 256 kts 107°
2026-05-05 18:49 20.68561 -156.67753 5036 ft 242 kts 106°
2026-05-05 18:50 20.68248 -156.66601 4893 ft 234 kts 106°
2026-05-05 18:50 20.67815 -156.65007 4790 ft 219 kts 105°
2026-05-05 18:50 20.67396 -156.63465 4691 ft 214 kts 106°
2026-05-05 18:50 20.66988 -156.61950 4607 ft 210 kts 103°
2026-05-05 18:51 20.67040 -156.60425 4493 ft 208 kts 64°
2026-05-05 18:51 20.68005 -156.59322 4516 ft 207 kts 36°
2026-05-05 18:51 20.69178 -156.58402 4519 ft 214 kts 38°
2026-05-05 18:51 20.70390 -156.57451 4430 ft 218 kts 37°
2026-05-05 18:52 20.71635 -156.56506 4159 ft 219 kts 36°
2026-05-05 18:52 20.72874 -156.55578 3878 ft 214 kts 36°
2026-05-05 18:52 20.74086 -156.54674 3585 ft 209 kts 38°
2026-05-05 18:52 20.75255 -156.53803 3321 ft 205 kts 38°
2026-05-05 18:53 20.76415 -156.52943 3047 ft 200 kts 38°
2026-05-05 18:53 20.77564 -156.52086 2783 ft 204 kts 35°
2026-05-05 18:53 20.78753 -156.51200 2516 ft 211 kts 35°
2026-05-05 18:53 20.79967 -156.50297 2233 ft 211 kts 34°
2026-05-05 18:54 20.81132 -156.49429 1949 ft 200 kts 34°
2026-05-05 18:54 20.82242 -156.48602 1710 ft 188 kts 34°
2026-05-05 18:54 20.83293 -156.47820 1446 ft 179 kts 34°
2026-05-05 18:54 20.84292 -156.47078 1220 ft 169 kts 34°
2026-05-05 18:55 20.85191 -156.46407 1038 ft 153 kts 33°
2026-05-05 18:55 20.86054 -156.45765 811 ft 149 kts 33°
2026-05-05 18:55 20.86910 -156.45123 626 ft 153 kts 34°
2026-05-05 18:55 20.87775 -156.44466 363 ft 153 kts 33°
2026-05-05 18:56 20.88637 -156.43837 126 ft 148 kts 33°
2026-05-05 18:56 20.89449 -156.43231 33 ft 136 kts 32°
2026-05-05 18:56 20.90054 -156.42788 26 ft 74 kts 34°
2026-05-05 18:56 20.90319 -156.42593 27 ft 31 kts 34°
2026-05-05 18:57 20.90440 -156.42508 28 ft 11 kts 21°
2026-05-05 18:57 20.90485 -156.42558 28 ft 11 kts 266°
2026-05-05 18:57 20.90444 -156.42650 28 ft 18 kts 229°
2026-05-05 18:57 20.90318 -156.42748 28 ft 27 kts 215°
2026-05-05 18:58 20.90162 -156.42864 27 ft 27 kts 214°
2026-05-05 18:58 20.90015 -156.42973 28 ft 25 kts 214°
2026-05-05 18:58 20.89876 -156.43078 29 ft 25 kts 214°
2026-05-05 18:58 20.89710 -156.43201 30 ft 31 kts 214°
2026-05-05 18:59 20.89533 -156.43332 30 ft 30 kts 214°
2026-05-05 18:59 20.89420 -156.43416 29 ft 7 kts 214°
2026-05-05 18:59 20.89396 -156.43458 29 ft 7 kts 260°
2026-05-05 18:59 20.89403 -156.43507 29 ft 7 kts 292°
2026-05-05 19:00 20.89426 -156.43548 31 ft 4 kts 305°
2026-05-05 19:00 20.89439 -156.43566 30 ft 1 kts 307°
2026-05-05 19:00 20.89440 -156.43566 30 ft 0 kts 307°